Vertical_Velocity
0 -5 -7 16 2 14 -9 0 -1 9 -0 5 8 -3 5 5 -0 3 2 -2 -0 3 2 1 -0 -3 -3 -2 -2 -1 -0 -0 -0 -3 2 -3 3 -0 1 -1 0 -1 -1 -0
-2 -5 9 -5 -4 3 7 2 7 -16 -1 13 4 4 1 -1 1 -3 -1 -0 0 1 1 -0 -0 1 0 -1 -1 -1 -0 -0 0 -0 -0 -1 -0 0 -1 -1 -2 -1 -1 -3
-4 6 5 5 -1 0 -2 0 11 12 16 -2 10 -6 -4 1 -0 -2 0 0 2 3 1 1 2 -0 -0 2 1 0 1 1 -1 -2 -2 -1 0 0 -1 -1 -1 -3 -1 -0
-6 -3 9 1 -9 6 -7 26 6 1 10 8 32 -2 -11 -5 -1 -5 -4 2 3 2 1 -1 -2 1 0 -1 0 -0 0 2 2 -0 -2 -2 -2 -2 -1 -0 -0 0 1 -0
1 3 1 -16 25 1 5 8 2 6 4 14 -11 -6 14 5 -30 -17 -2 11 3 4 2 0 -1 -1 1 1 -0 0 -0 -1 -1 0 2 -0 0 -1 -1 -0 -0 -1 -1 -2
2 1 -1 5 -5 -1 24 -5 11 5 11 -12 -11 -9 38 -33 24 5 8 -4 4 0 1 1 -1 1 -0 -2 0 1 -0 0 0 2 -1 1 1 -0 -0 -0 1 1 -1 -1
3 -1 -2 2 0 4 -0 11 -7 -3 -11 -111 42 6 14 5 6 8 7 -1 1 -1 -0 5 3 -3 -3 -0 -0 -2 -1 -1 0 0 -0 1 1 1 1 -0 -0 0 1 0
-3 -0 -0 15 3 10 8 16 12 -2 -29 -4 43 -50 -3 18 6 8 -0 -6 -18 -8 3 -1 -3 -1 1 1 0 -0 -1 -0 0 -0 -1 -0 1 0 -0 0 0 1 -1 -2
-0 -2 -5 1 12 5 -3 -4 -28 18 25 18 15 -40 -5 -6 -2 8 -2 3 5 5 8 3 1 0 0 -1 -0 0 1 1 -0 -1 -0 -0 1 0 -0 -2 -0 -1 -1 -2
5 -10 2 1 -2 -9 -24 36 29 -1 -19 -25 -7 7 -23 -20 8 3 -7 5 5 -0 1 -4 2 0 -0 1 2 0 0 -0 1 0 0 1 -0 -1 -1 0 -0 -1 -2 -1
13 -5 17 -1 -14 14 -1 -6 -15 16 16 -16 -7 -48 25 8 2 10 9 9 2 2 1 3 2 -1 -0 1 1 1 1 0 0 0 1 -2 -0 -0 0 -1 -1 0 -1 -1
7 -5 -6 4 9 -0 -2 -8 6 13 -22 -33 20 4 1 -3 4 -5 6 4 1 2 0 -1 -4 -1 -0 -2 1 1 -0 -1 -1 1 -1 -1 1 0 -1 1 1 0 -1 -1
-3 -8 5 5 -6 -5 -15 19 5 -16 33 -19 13 -11 -2 -1 10 -5 6 6 -2 -3 -8 -2 -3 1 -4 -3 1 2 1 1 1 -0 2 2 0 -0 1 -0 -2 -0 -2 -1
-1 3 2 -7 26 24 -8 5 4 7 22 -20 -28 17 4 2 6 7 1 -3 -12 -0 -1 2 -1 4 1 0 1 1 0 0 2 1 0 -1 1 1 -1 -1 -1 -0 -1 -1
-1 -5 0 -5 -1 0 4 1 2 -4 -25 15 -7 2 18 1 3 14 14 -6 -21 -11 0 2 -2 -2 2 0 0 1 -0 -2 0 1 0 1 0 -1 -0 -1 0 -0 -0 -0
0 -5 -2 -8 7 5 -1 6 -7 -24 10 -11 7 5 16 15 -3 -7 -2 10 -10 6 4 6 -1 3 4 2 -0 -1 1 1 1 1 1 0 -0 -1 -1 0 0 -0 -0 -0
-1 -2 1 -10 15 4 -15 -50 9 17 -3 8 -10 15 26 -11 0 1 1 6 2 -1 -1 2 4 5 2 4 4 3 0 1 1 0 -0 0 1 1 -1 -1 -1 0 1 1
3 0 4 -9 7 -14 -56 32 -12 -7 11 0 5 3 6 -5 15 7 2 -1 -23 0 -2 -0 1 6 6 1 2 -2 5 0 1 0 0 -0 -0 -0 -0 -0 0 1 1 -1
-3 13 -9 -15 10 -5 3 -26 -1 6 16 19 -2 -0 3 -2 16 -16 -12 1 7 7 0 4 5 11 4 6 4 0 -2 1 0 -0 -1 0 -1 2 1 1 0 1 -1 -2
5 5 -5 16 -1 -30 19 32 0 19 -40 5 6 -2 8 21 -28 10 5 8 16 3 -1 5 2 3 -1 5 -9 0 3 1 1 1 1 -1 2 2 1 -1 -0 -1 -2 -1
2 7 -22 10 -9 -33 16 15 -1 -18 47 5 13 21 16 -2 0 34 6 9 11 6 7 13 -4 1 -3 -5 3 2 4 1 1 -0 1 -0 -1 2 1 -0 -2 -2 -0 -2
2 12 -0 9 -3 -49 -1 33 30 -33 -31 8 1 6 23 20 5 -1 6 2 -14 -1 7 0 -16 1 6 -3 2 3 -1 -1 -1 2 0 1 0 1 1 -2 -2 -1 -2 -3
-7 0 -16 -7 -29 33 36 -19 1 -2 11 -1 0 7 10 2 -7 -15 -2 1 0 11 7 12 -4 2 3 1 4 4 3 3 1 1 2 1 -0 -0 -1 -2 -1 -1 -1 -2
4 5 -19 -13 -2 17 -36 -8 0 -8 13 1 1 4 0 2 -1 -2 -2 -5 -3 -10 -1 4 -11 -0 -1 6 0 -1 -0 3 4 0 1 -0 0 -0 -0 -1 -0 -0 -1 -2
19 -8 15 -8 -4 6 14 -3 -21 -4 13 0 1 6 3 -5 3 0 2 -6 4 -2 -3 -13 -2 3 9 3 -2 1 4 3 3 0 1 1 0 1 -2 -0 -0 -0 -0 -1
7 26 -27 -24 42 -17 -2 1 14 -3 9 9 -2 -1 -0 -0 -1 -4 4 -6 -2 -0 1 -7 2 -0 2 6 2 4 1 1 0 2 1 2 0 -2 1 -0 -0 -0 -0 -2
Height
5741 5746 5752 5756 5761 5768 5772 5777 5781 5788 5793 5796 5798 5801 5807 5811 5816 5820 5825 5828 5831 5834 5836 5837 5840 5842 5844 5845 5847 5848 5849 5849 5849 5849 5849 5848 5847 5846 5845 5845 5844 5844 5843 5842
5732 5737 5740 5745 5750 5756 5763 5767 5775 5774 5781 5785 5786 5791 5797 5802 5806 5811 5815 5819 5822 5826 5829 5832 5834 5836 5837 5839 5840 5841 5842 5843 5844 5843 5842 5841 5840 5840 5839 5839 5839 5838 5837 5837
5722 5725 5730 5734 5740 5746 5750 5757 5765 5765 5772 5773 5776 5777 5786 5792 5796 5801 5805 5809 5813 5817 5821 5825 5827 5828 5830 5832 5833 5834 5835 5836 5836 5836 5835 5834 5834 5833 5833 5833 5832 5832 5831 5830
5713 5716 5720 5723 5729 5735 5739 5748 5752 5753 5758 5763 5763 5766 5773 5781 5786 5791 5796 5800 5804 5808 5812 5815 5817 5820 5822 5823 5825 5826 5827 5828 5828 5828 5827 5827 5827 5827 5826 5826 5825 5825 5823 5822
5706 5707 5709 5713 5723 5721 5732 5734 5739 5745 5747 5750 5750 5755 5767 5767 5772 5782 5787 5791 5794 5798 5802 5806 5809 5811 5812 5814 5816 5817 5819 5820 5820 5820 5819 5819 5819 5819 5819 5819 5819 5817 5817 5816
5697 5699 5701 5705 5706 5713 5718 5723 5728 5733 5736 5733 5745 5751 5753 5756 5770 5770 5776 5780 5785 5788 5792 5796 5799 5800 5801 5804 5807 5809 5810 5811 5812 5812 5812 5812 5812 5812 5812 5811 5811 5811 5810 5810
5688 5690 5692 5695 5698 5703 5706 5712 5715 5717 5719 5723 5741 5734 5744 5751 5756 5763 5766 5770 5774 5778 5782 5786 5786 5786 5791 5796 5798 5800 5801 5802 5803 5803 5804 5805 5805 5805 5805 5805 5805 5805 5805 5803
5679 5682 5683 5687 5689 5694 5697 5701 5704 5706 5711 5718 5727 5720 5735 5744 5743 5749 5754 5759 5763 5764 5772 5774 5776 5779 5784 5787 5789 5791 5792 5793 5794 5796 5797 5798 5799 5799 5799 5799 5799 5798 5797 5796
5668 5670 5672 5676 5679 5683 5688 5686 5701 5705 5709 5713 5718 5720 5725 5731 5734 5741 5746 5752 5756 5759 5762 5764 5767 5771 5775 5778 5780 5782 5783 5785 5786 5788 5790 5791 5792 5792 5792 5791 5790 5790 5789 5787
5656 5658 5662 5664 5667 5672 5674 5688 5687 5690 5694 5699 5706 5708 5713 5718 5729 5731 5735 5743 5746 5746 5749 5751 5755 5762 5765 5767 5769 5772 5774 5776 5778 5780 5782 5783 5783 5783 5783 5783 5783 5782 5781 5779
5646 5647 5653 5653 5657 5663 5668 5668 5671 5680 5685 5690 5696 5695 5710 5710 5715 5723 5728 5732 5732 5736 5739 5741 5746 5752 5755 5758 5761 5763 5765 5768 5771 5772 5774 5775 5775 5775 5775 5775 5775 5775 5774 5772
5632 5633 5638 5645 5647 5650 5655 5659 5664 5665 5673 5675 5682 5690 5699 5702 5704 5708 5715 5719 5721 5725 5727 5731 5736 5740 5745 5749 5752 5755 5757 5760 5762 5764 5766 5767 5767 5767 5767 5768 5768 5768 5766 5764
5618 5621 5625 5632 5636 5640 5643 5648 5652 5658 5665 5666 5673 5678 5689 5693 5698 5699 5701 5706 5708 5711 5715 5721 5725 5731 5738 5742 5744 5746 5749 5752 5755 5756 5758 5759 5760 5761 5761 5761 5761 5760 5758 5756
5603 5609 5612 5619 5629 5632 5632 5637 5641 5646 5649 5657 5658 5671 5676 5680 5685 5690 5694 5697 5699 5703 5707 5713 5716 5724 5729 5732 5735 5738 5741 5744 5746 5749 5751 5752 5753 5754 5754 5754 5752 5751 5749 5748
5590 5595 5600 5604 5611 5616 5619 5624 5630 5634 5642 5643 5657 5663 5665 5669 5674 5680 5686 5688 5690 5695 5700 5706 5712 5716 5721 5724 5727 5730 5733 5736 5738 5741 5743 5744 5746 5746 5746 5745 5744 5743 5742 5741
5576 5581 5585 5591 5599 5603 5606 5612 5618 5624 5631 5634 5643 5645 5654 5658 5662 5669 5676 5681 5686 5691 5695 5697 5702 5706 5711 5715 5719 5722 5724 5727 5730 5732 5734 5736 5737 5738 5737 5737 5737 5736 5735 5733
5562 5568 5571 5578 5587 5588 5589 5602 5610 5615 5619 5627 5628 5639 5644 5644 5653 5661 5666 5672 5678 5683 5685 5689 5694 5698 5702 5706 5710 5713 5716 5719 5722 5724 5726 5728 5729 5729 5730 5730 5730 5728 5727 5725
5549 5555 5556 5562 5570 5569 5588 5593 5600 5605 5610 5616 5620 5623 5628 5633 5644 5650 5657 5662 5665 5673 5677 5680 5684 5687 5691 5695 5700 5705 5709 5711 5714 5716 5718 5720 5721 5722 5722 5722 5722 5721 5720 5718
5533 5538 5540 5546 5554 5562 5570 5584 5592 5594 5600 5605 5608 5613 5621 5626 5629 5633 5644 5651 5659 5664 5669 5673 5675 5678 5680 5686 5692 5697 5701 5704 5706 5708 5710 5712 5713 5714 5715 5715 5715 5714 5713 5711
5518 5521 5523 5534 5536 5543 5567 5574 5578 5584 5584 5596 5599 5602 5610 5615 5614 5626 5636 5642 5648 5651 5656 5664 5666 5669 5671 5676 5684 5689 5692 5695 5697 5700 5702 5704 5706 5707 5708 5708 5708 5707 5705 5704
5502 5504 5508 5520 5521 5534 5551 5562 5564 5570 5589 5585 5590 5594 5598 5600 5608 5617 5619 5625 5632 5639 5645 5653 5658 5661 5666 5671 5676 5680 5683 5686 5688 5691 5694 5697 5698 5700 5700 5701 5700 5699 5698 5696
5487 5492 5496 5504 5506 5517 5544 5552 5552 5556 5563 5566 5570 5574 5579 5583 5589 5598 5606 5612 5619 5626 5634 5640 5646 5653 5658 5660 5666 5671 5675 5677 5680 5683 5686 5689 5690 5692 5693 5693 5692 5692 5690 5688
5470 5473 5477 5480 5492 5522 5515 5518 5533 5543 5549 5554 5561 5565 5570 5572 5577 5583 5593 5600 5608 5616 5622 5629 5636 5642 5646 5652 5657 5662 5665 5669 5671 5675 5678 5680 5683 5684 5685 5685 5685 5684 5682 5680
5452 5458 5464 5471 5487 5483 5494 5509 5518 5526 5533 5540 5548 5556 5561 5566 5571 5572 5581 5591 5598 5603 5610 5617 5623 5629 5635 5641 5647 5651 5655 5659 5663 5667 5670 5672 5674 5676 5676 5677 5677 5675 5674 5672
5437 5440 5456 5460 5469 5476 5486 5491 5501 5513 5521 5528 5536 5545 5551 5557 5563 5566 5571 5576 5586 5593 5601 5606 5611 5619 5625 5630 5637 5642 5647 5651 5655 5659 5661 5664 5666 5667 5669 5669 5668 5666 5665 5663
5420 5434 5426 5446 5462 5454 5468 5478 5487 5496 5505 5514 5522 5532 5540 5546 5551 5556 5563 5567 5573 5580 5590 5597 5601 5606 5612 5620 5626 5632 5637 5641 5646 5650 5653 5655 5657 5659 5660 5659 5659 5658 5656 5653